Portada
METAR-TAF:

METAR-TAF

Aeropuertos :

Middleton Island, Alaska, Estados Unidos

latitud: 59-26N, longitud: 146-18W, altitud: 27 m

Observación

El informe se hizo hace 1 hora y 3 minutos, a las 12:51 UTC
Viento 6 kt del oeste-noroeste
Temperatura 3°C
Humedad 93%
Presión 998 hPa
Visibilidad: 16.1 km
Cielo cubierto a una altura de 1800 ft

METAR: PAMD 031251Z AUTO 29006KT 10SM OVC018 03/02 A2948 RMK AO2 SLP970 T00280022 PNO $

Hora: 04:54 (13:54 UTC)


TAF: falta

Observaciones y pronósticos meteorológicos de más de 4000 aeropuertos (mensajes METAR y TAF).

Los puntos amarillos y rojos representan las estaciones disponibles.

Ponga el ratón en el punto deseado para ver el nombre de la estación.

Haga clic para ver las observaciones y los pronósticos meteorológicos.

Para cambiar el mapa : haga clic en los botones verdes con una cruz de color negro para hacer un zoom, en el botón verde con un guión para alejar o en las flechas verdes para mapas adyacentes.


METAR-TAF: